Location: 98498
(47.1644°N, 122.5620°W)
Time: 22:49:07
(UTC-07:00)

ISS - Visible Passes

Search period start: 23 October 2017 00:00
Search period end: 02 November 2017 00:00
Orbit: 400 x 408 km, 51.6° (Epoch: 24 October)

Date Brightness Start Highest point End Pass type
(mag) Time Alt. Az. Time Alt. Az. Time Alt. Az.
29 Oct -0.7 06:29:06 10° SSE 06:30:32 12° SE 06:31:59 10° ESE visible
30 Oct -2.6 07:11:03 10° SW 07:14:08 42° SSE 07:17:15 10° ENE visible
31 Oct -1.7 06:19:06 10° SSW 06:21:50 25° SE 06:24:34 10° E visible
01 Nov -1.1 05:29:12 15° SE 05:29:35 15° SE 05:31:32 10° E visible
01 Nov -3.8 07:02:22 10° WSW 07:05:37 83° SSE 07:08:53 10° ENE visible
